This demonstration page uses our WeatherBlox Daily Observations layout. Learn more.

Hourly Observations for June 4, 2016

Temp ( °F °C ) Dew Point ( °F °C ) Humidity (%) Winds ( mph kmh ) Pressure ( in mb ) Visibility ( mi km ) Precip ( " mm )
12:15 am 00:15 Clear 63 17.3 48 8.7 57 57 NNW 3 6 30 1016 10 16.09344 0 0
12:35 am 00:35 Clear 63 17.1 48 8.8 58 58 Calm 30 1016 10 16.09344 0 0
12:55 am 00:55 Clear 62 16.5 49 9.2 62 62 NW 6 9 30.06 1018 10 16.09344 0 0
1:15 am 01:15 Clear 61 16 48 9 63 63 NW 5 7 30.06 1018 10 16.09344 0 0
1:35 am 01:35 Clear 61 16.1 48 8.8 62 62 NW 5 7 30.06 1018 10 16.09344 0 0
1:55 am 01:55 Clear 62 16.4 47 8.6 60 60 NNW 6 9 30.03 1017 10 16.09344 0 0
2:15 am 02:15 Clear 61 16.1 48 8.7 62 62 NW 6 9 30.06 1018 10 16.09344 0 0
2:35 am 02:35 Clear 58 14.5 48 9 70 70 NNW 6 9 30.06 1018 10 16.09344 0 0
2:55 am 02:55 Clear 60 15.3 47 8.2 63 63 NW 6 9 30.06 1018 10 16.09344 0 0
3:15 am 03:15 Clear 59 15.1 47 8.2 64 64 NNW 5 7 30.06 1018 10 16.09344 0 0
3:35 am 03:35 Clear 58 14.7 47 8.1 65 65 NNW 6 9 30.06 1018 10 16.09344 0 0
3:55 am 03:55 Clear 59 14.9 46 8 64 64 NNW 7 11 30.06 1018 10 16.09344 0 0
4:15 am 04:15 Clear 58 14.6 47 8.1 65 65 NW 8 13 30.06 1018 10 16.09344 0 0
4:35 am 04:35 Clear 58 14.5 46 8 65 65 NW 8 13 30.06 1018 10 16.09344 0 0
4:55 am 04:55 Clear 57 14 46 8 67 67 NNW 7 11 30.06 1018 10 16.09344 0 0
5:35 am 05:35 Clear 56 13.2 46 7.7 70 70 NW 7 11 30.09 1019 10 16.09344 0 0
5:55 am 05:55 Clear 58 14.5 45 7.2 62 62 NW 8 13 30.06 1018 10 16.09344 0 0
6:15 am 06:15 Sunny 57 14.1 45 7.4 64 64 NW 8 13 30.06 1018 10 16.09344 0 0
6:35 am 06:35 Sunny 56 13.5 46 7.7 68 68 NW 7 11 30.12 1020 10 16.09344 0 0
6:55 am 06:55 Sunny 58 14.2 46 7.9 66 66 NW 7 11 30.09 1019 10 16.09344 0 0
7:15 am 07:15 Sunny 59 15.1 46 7.8 62 62 NW 9 15 30.09 1019 10 16.09344 0 0
7:35 am 07:35 Sunny 62 16.5 46 7.8 57 57 NW 9 15 30.09 1019 10 16.09344 0 0
7:55 am 07:55 Sunny 64 17.6 44 6.8 49 49 NW 9 15 30.06 1018 10 16.09344 0 0
8:15 am 08:15 Sunny 65 18.5 44 6.5 46 46 NNW 10 17 30.06 1018 10 16.09344 0 0
8:35 am 08:35 Sunny 66 19 44 6.7 45 45 NNW 9 15 30.06 1018 10 16.09344 0 0
8:55 am 08:55 Sunny 67 19.6 43 6 41 41 NNW 13 20 30.06 1018 10 16.09344 0 0
9:15 am 09:15 Sunny 68 20 44 6.6 42 42 NNW 13 20 30.06 1018 10 16.09344 0 0
9:35 am 09:35 Sunny 69 20.5 44 6.8 41 41 NW 12 19 30.06 1018 10 16.09344 0 0
9:55 am 09:55 Sunny 70 21.2 44 6.8 39 39 NW 13 20 30.03 1017 10 16.09344 0 0
10:15 am 10:15 Sunny 71 21.5 44 6.5 38 38 NNW 9 15 30.03 1017 10 16.09344 0 0
10:35 am 10:35 Sunny 72 22.4 43 6.3 35 35 NNW 14 22 30.03 1017 10 16.09344 0 0
10:55 am 10:55 Sunny 73 22.9 45 7.1 36 36 NNW 14 22 30.03 1017 10 16.09344 0 0
11:15 am 11:15 Sunny 74 23.3 41 4.9 30 30 NNW 18 30 30.03 1017 10 16.09344 0 0
11:35 am 11:35 Sunny 74 23.3 40 4.3 29 29 NNW 20 31 30.03 1017 10 16.09344 0 0
11:55 am 11:55 Sunny 75 23.7 40 4.6 29 29 NW 18 30 30.03 1017 10 16.09344 0 0
12:15 pm 12:15 Sunny 75 23.8 40 4.5 29 29 NW 23 37 30.03 1017 10 16.09344 0 0
12:35 pm 12:35 Sunny 75 24 42 5.8 31 31 NNW 20 31 30.03 1017 10 16.09344 0 0
12:55 pm 12:55 Sunny 75 24 40 4.7 29 29 NNW 20 31 29.97 1015 10 16.09344 0 0
1:15 pm 13:15 Sunny 76 24.5 40 4.2 27 27 NNW 23 37 29.97 1015 10 16.09344 0 0
1:35 pm 13:35 Sunny 77 24.8 39 4 26 26 NNW 21 33 29.97 1015 10 16.09344 0 0
1:55 pm 13:55 Sunny 77 25.2 39 4 25 25 N 22 35 29.97 1015 10 16.09344 0 0
2:15 pm 14:15 Sunny 77 25.2 40 4.5 26 26 NNW 21 33 29.97 1015 10 16.09344 0 0
2:35 pm 14:35 Sunny 77 25.2 40 4.3 26 26 NW 22 35 29.94 1014 10 16.09344 0 0
2:55 pm 14:55 Sunny 78 25.4 40 4.2 25 25 NNW 17 28 29.94 1014 10 16.09344 0 0
3:15 pm 15:15 Sunny 78 25.6 39 4.1 25 25 NNW 21 33 29.94 1014 10 16.09344 0 0
3:35 pm 15:35 Sunny 78 25.6 38 3.4 24 24 NW 18 30 29.94 1014 10 16.09344 0 0
3:55 pm 15:55 Sunny 78 25.8 40 4.5 25 25 N 16 26 29.94 1014 10 16.09344 0 0
4:15 pm 16:15 Sunny 78 25.8 38 3.4 23 23 NW 17 28 29.94 1014 10 16.09344 0 0
4:35 pm 16:35 Sunny 79 25.9 38 3.3 23 23 NNW 17 28 29.94 1014 10 16.09344 0 0
4:55 pm 16:55 Sunny 78 25.8 37 2.8 23 23 NNW 18 30 29.94 1014 10 16.09344 0 0
5:15 pm 17:15 Sunny 78 25.8 37 2.9 23 23 NNW 17 28 29.94 1014 10 16.09344 0 0
5:35 pm 17:35 Sunny 78 25.7 37 2.9 23 23 N 16 26 29.94 1014 10 16.09344 0 0
5:55 pm 17:55 Sunny 78 25.6 37 2.7 23 23 N 22 35 29.94 1014 10 16.09344 0 0
6:15 pm 18:15 Sunny 78 25.5 38 3.2 24 24 N 18 30 29.94 1014 10 16.09344 0 0
6:35 pm 18:35 Sunny 77 25.1 36 2.3 23 23 N 20 31 29.94 1014 10 16.09344 0 0
6:55 pm 18:55 Sunny 77 25 38 3.1 24 24 N 15 24 29.94 1014 10 16.09344 0 0
7:15 pm 19:15 Sunny 76 24.5 38 3.6 26 26 N 20 31 29.94 1014 10 16.09344 0 0
7:35 pm 19:35 Sunny 76 24.3 39 3.7 26 26 NNW 13 20 29.94 1014 10 16.09344 0 0
7:55 pm 19:55 Sunny 75 24 39 3.7 27 27 N 12 19 29.94 1014 10 16.09344 0 0
8:15 pm 20:15 Sunny 74 23.5 40 4.3 29 29 N 12 19 29.97 1015 10 16.09344 0 0
8:35 pm 20:35 Sunny 73 22.9 41 4.9 31 31 N 9 15 29.97 1015 10 16.09344 0 0
8:55 pm 20:55 Sunny 71 21.7 42 5.5 35 35 N 7 11 29.97 1015 10 16.09344 0 0
9:15 pm 21:15 Clear 68 20.2 43 6.2 40 40 N 5 7 29.97 1015 10 16.09344 0 0
9:35 pm 21:35 Clear 67 19.3 44 6.7 44 44 N 5 7 30 1016 10 16.09344 0 0
9:55 pm 21:55 Clear 66 19 44 6.9 46 46 NNW 6 9 30 1016 10 16.09344 0 0
10:15 pm 22:15 Clear 65 18.3 45 7.1 48 48 NNW 6 9 30.03 1017 10 16.09344 0 0
10:35 pm 22:35 Clear 64 18 45 7.2 49 49 NNW 6 9 30.03 1017 10 16.09344 0 0
10:55 pm 22:55 Clear 63 17.2 46 7.5 53 53 NW 3 6 30.03 1017 10 16.09344 0 0
11:15 pm 23:15 Clear 62 16.5 46 7.7 56 56 NNW 5 7 30.06 1018 10 16.09344 0 0
11:35 pm 23:35 Clear 61 16.2 46 7.8 58 58 NW 5 7 30.06 1018 10 16.09344 0 0
11:55 pm 23:55 Clear 61 16 46 7.9 59 59 NW 5 7 30.06 1018 10 16.09344 0 0

Powered by AerisWeather